DW7745 Weather Reports


Display with metric or nautical units.
time (UTC)temp
F
wind
direction
speed
MPH
gust
MPH
rain 1hr
in
rain 24hr
in
rain mn
in
humidity
%
barometer
mb
20260506221535 74 333 3.0 9.0 0.00 0.02 0.02 71 1007.8
20260506220036 75 219 2.0 8.0 0.00 0.02 0.02 70 1007.8
20260506214533 75 345 2.0 8.0 0.00 0.02 0.02 70 1007.8
20260506213032 76 109 2.0 8.0 0.00 0.02 0.02 70 1007.5
20260506211533 77 141 2.0 10.0 0.00 0.02 0.02 69 1007.3
20260506210031 79 56 2.0 5.0 0.00 0.02 0.02 68 1007.3
20260506204528 77 148 0.0 7.0 0.00 0.02 0.02 74 1007.5
20260506203027 75 226 3.0 10.0 0.00 0.02 0.02 75 1007.3
20260506201526 77 264 3.0 11.0 0.00 0.02 0.02 73 1007.1
20260506200025 85 279 0.0 4.0 0.00 0.02 0.02 69 1007.3
20260506194524 85 28 0.0 3.0 0.00 0.02 0.02 70 1007.0
20260506193020 83 51 0.0 3.0 0.00 0.02 0.02 74 1007.0
20260506191519 82 117 2.0 4.0 0.00 0.02 0.02 76 1007.2
20260506190019 82 120 2.0 4.0 0.00 0.02 0.02 76 1007.4
20260506184517 80 127 1.0 4.0 0.00 0.02 0.02 76 1007.3
20260506183018 81 21 1.0 7.0 0.00 0.02 0.02 74 1007.8
20260506181512 79 260 0.0 3.0 0.00 0.02 0.02 76 1007.7
20260506180009 78 265 1.0 4.0 0.00 0.02 0.02 77 1007.8
20260506174508 76 230 0.0 3.0 0.00 0.02 0.02 80 1007.9
20260506173006 73 101 1.0 3.0 0.00 0.02 0.02 84 1008.2
20260506171510 73 268 2.0 6.0 0.00 0.02 0.02 84 1008.4
20260506170005 75 203 1.0 7.0 0.00 0.02 0.02 80 1008.4
20260506164505 77 114 1.0 2.0 0.00 0.02 0.02 85 1008.4
20260506163007 78 108 1.0 4.0 0.00 0.02 0.02 86 1008.3
20260506161619 77 108 1.0 2.0 0.00 0.02 0.02 89 1008.5
20260506160059 76 104 0.0 1.0 0.00 0.02 0.02 89 1008.5
20260506154619 75 115 0.0 2.0 0.00 0.02 0.02 90 1008.3
20260506153107 75 97 0.0 1.0 0.00 0.02 0.02 91 1008.0
20260506151557 74 110 0.0 2.0 0.00 0.02 0.02 91 1007.5
20260506150051 74 122 0.0 1.0 0.00 0.02 0.02 92 1007.4
20260506144549 74 84 0.0 1.0 0.00 0.02 0.02 92 1007.3
20260506143103 74 32 0.0 1.0 0.00 0.02 0.02 92 1007.4
20260506141547 74 92 0.0 1.0 0.00 0.02 0.02 92 1007.4
20260506140046 73 96 1.0 4.0 0.00 0.02 0.02 93 1006.9
20260506134545 73 140 1.0 4.0 0.00 0.02 0.02 93 1006.4
20260506133042 73 148 1.0 6.0 0.00 0.02 0.02 94 1006.2
20260506131540 72 142 3.0 6.0 0.00 0.02 0.02 94 1006.2
20260506130039 72 121 2.0 5.0 0.00 0.02 0.02 94 1006.0
20260506124538 72 131 2.0 6.0 0.00 0.02 0.02 94 1006.1
20260506123038 72 122 2.0 4.0 0.00 0.02 0.02 94 1006.0
20260506121541 72 127 1.0 3.0 0.00 0.02 0.02 94 1006.0
20260506120036 72 122 1.0 3.0 0.00 0.02 0.02 94 1005.9
20260506114543 72 120 0.0 3.0 0.00 0.02 0.02 94 1005.8
20260506113036 72 143 0.0 2.0 0.00 0.02 0.02 94 1005.7
20260506111538 72 143 0.0 3.0 0.00 0.02 0.02 94 1005.6
20260506110034 72 249 0.0 4.0 0.00 0.02 0.02 94 1005.7
20260506104534 72 166 1.0 2.0 0.00 0.02 0.02 94 1005.5
20260506103033 72 146 2.0 6.0 0.00 0.02 0.02 94 1005.5
20260506101534 72 214 1.0 6.0 0.01 0.02 0.02 94 1005.5
20260506100031 72 146 2.0 5.0 0.01 0.02 0.02 94 1005.4
20260506094535 72 113 3.0 6.0 0.02 0.02 0.02 94 1005.3
20260506093031 72 216 3.0 6.0 0.02 0.02 0.02 94 1005.2
20260506091530 72 256 2.0 6.0 0.01 0.01 0.01 93 1005.1
20260506090029 72 172 2.0 6.0 0.01 0.01 0.01 93 1005.1
20260506084528 72 174 3.0 9.0 0.00 0.00 0.00 93 1005.0
20260506083027 73 160 3.0 10.0 0.00 0.00 0.00 92 1004.9
20260506081523 74 136 4.0 8.0 0.00 0.00 0.00 89 1005.0
20260506073019 74 141 4.0 7.0 0.00 0.00 0.00 90 1005.5
20260506071516 75 154 4.0 8.0 0.00 0.00 0.00 89 1005.5
20260506061516 75 140 5.0 8.0 0.00 0.00 0.00 89 1005.8
20260506044503 76 107 5.0 10.0 0.00 0.00 0.00 87 1005.7
20260506043102 76 132 7.0 13.0 0.00 0.00 0.00 87 1005.6
20260506041559 76 165 6.0 10.0 0.00 0.00 0.00 87 1005.5
20260506040104 76 155 5.0 10.0 0.00 0.00 0.00 87 1005.3
20260506034613 76 134 6.0 9.0 0.00 0.00 0.00 86 1005.3
20260506033057 77 132 5.0 9.0 0.00 0.00 0.00 86 1005.1
20260506031604 77 146 6.0 9.0 0.00 0.00 0.00 85 1004.6
20260506030056 77 179 4.0 6.0 0.00 0.00 0.00 84 1004.4
20260506024555 78 142 4.0 7.0 0.00 0.00 0.00 83 1004.4
20260506023054 78 148 4.0 8.0 0.00 0.00 0.00 82 1004.2
20260506021558 79 155 5.0 7.0 0.00 0.00 0.00 80 1003.9
20260506020055 79 139 2.0 4.0 0.00 0.00 0.00 80 1003.8
20260506014552 80 148 2.0 5.0 0.00 0.00 0.00 79 1003.5
20260506013052 80 144 3.0 5.0 0.00 0.00 0.00 78 1003.4
20260506011551 80 138 2.0 4.0 0.00 0.00 0.00 78 1003.3
20260506010053 81 142 2.0 4.0 0.00 0.00 0.00 76 1003.3
20260506004549 82 142 2.0 4.0 0.00 0.00 0.00 75 1003.4
20260506003048 83 136 1.0 6.0 0.00 0.00 0.00 73 1003.2
20260506001547 83 173 1.0 2.0 0.00 0.00 0.00 72 1003.2
20260506000047 83 162 1.0 4.0 0.00 0.00 0.00 72 1003.1
20260505234555 84 151 1.0 3.0 0.00 0.00 0.00 71 1003.0
20260505233051 84 142 3.0 5.0 0.00 0.00 0.00 70 1002.9
20260505231551 85 146 1.0 6.0 0.00 0.00 0.00 69 1002.8
20260505230043 84 113 2.0 8.0 0.00 0.00 0.00 71 1002.7
20260505224543 84 172 4.0 7.0 0.00 0.00 0.00 70 1002.6
20260505223050 85 99 3.0 8.0 0.00 0.00 0.00 68 1002.8